Météo par heure à Al Jazirah al Hamra

Ce jour, 21 Octobre, Mercredi

Heure Température Précipitation Vent Pression Humidité
00:00 +26°C° 0 mm 2 m/s 757 mmHg 25%
01:00 +26°C° 0 mm 3 m/s 757 mmHg 29%
02:00 +25°C° 0 mm 3 m/s 757 mmHg 30%
03:00 +25°C° 0 mm 2 m/s 757 mmHg 31%
04:00 +24°C° 0 mm 2 m/s 756 mmHg 33%
05:00 +25°C° 0 mm 2 m/s 757 mmHg 28%
06:00 +25°C° 0 mm 1 m/s 758 mmHg 24%
07:00 +25°C° 0 mm 1 m/s 758 mmHg 19%
08:00 +29°C° 0 mm 1 m/s 759 mmHg 16%
09:00 +32°C° 0 mm 1 m/s 759 mmHg 12%
10:00 +36°C° 0 mm 1 m/s 759 mmHg 8%
11:00 +37°C° 0 mm 2 m/s 759 mmHg 9%
12:00 +38°C° 0 mm 2 m/s 758 mmHg 10%
13:00 +39°C° 0 mm 3 m/s 758 mmHg 11%
14:00 +38°C° 0 mm 3 m/s 757 mmHg 13%
15:00 +37°C° 0 mm 3 m/s 757 mmHg 15%
16:00 +36°C° 0 mm 3 m/s 757 mmHg 17%
17:00 +34°C° 0 mm 3 m/s 757 mmHg 20%
18:00 +30°C° 0 mm 2 m/s 757 mmHg 22%
19:00 +27°C° 0 mm 2 m/s 758 mmHg 25%
20:00 +27°C° 0 mm 2 m/s 757 mmHg 26%
21:00 +26°C° 0 mm 2 m/s 757 mmHg 27%
22:00 +25°C° 0 mm 2 m/s 757 mmHg 29%
23:00 +25°C° 0 mm 2 m/s 757 mmHg 35%

Demain, 22 Octobre, Jeudi

Heure Température Précipitation Vent Pression Humidité
00:00 +24°C° 0 mm 2 m/s 757 mmHg 42%
01:00 +23°C° 0 mm 1 m/s 757 mmHg 48%
02:00 +23°C° 0 mm 1 m/s 757 mmHg 50%
03:00 +22°C° 0 mm 1 m/s 757 mmHg 52%
04:00 +20°C° 0 mm 0 m/s 756 mmHg 55%
05:00 +23°C° 0 mm 1 m/s 757 mmHg 47%
06:00 +23°C° 0 mm 1 m/s 757 mmHg 40%
07:00 +24°C° 0 mm 1 m/s 758 mmHg 33%
08:00 +27°C° 0 mm 1 m/s 758 mmHg 30%
09:00 +30°C° 0 mm 2 m/s 758 mmHg 26%
10:00 +35°C° 0 mm 2 m/s 758 mmHg 23%
11:00 +36°C° 0 mm 2 m/s 758 mmHg 22%
12:00 +37°C° 0 mm 3 m/s 757 mmHg 22%
13:00 +38°C° 0 mm 3 m/s 757 mmHg 21%
14:00 +37°C° 0 mm 3 m/s 756 mmHg 25%
15:00 +36°C° 0 mm 3 m/s 756 mmHg 29%
16:00 +35°C° 0 mm 4 m/s 755 mmHg 33%
17:00 +33°C° 0 mm 3 m/s 756 mmHg 45%
18:00 +29°C° 0 mm 2 m/s 756 mmHg 56%
19:00 +27°C° 0 mm 1 m/s 756 mmHg 68%
20:00 +26°C° 0 mm 1 m/s 756 mmHg 70%
21:00 +26°C° 0 mm 1 m/s 756 mmHg 72%
22:00 +25°C° 0 mm 1 m/s 756 mmHg 74%
23:00 +25°C° 0 mm 1 m/s 756 mmHg 74%

Après-demain, 23 Octobre, Vendredi

Heure Température Précipitation Vent Pression Humidité
00:00 +25°C° 0 mm 1 m/s 756 mmHg 74%
01:00 +25°C° 0 mm 1 m/s 756 mmHg 75%
02:00 +24°C° 0 mm 1 m/s 756 mmHg 74%
03:00 +24°C° 0 mm 1 m/s 756 mmHg 73%
04:00 +24°C° 0 mm 2 m/s 756 mmHg 73%
05:00 +24°C° 0 mm 1 m/s 756 mmHg 66%
06:00 +24°C° 0 mm 1 m/s 757 mmHg 59%
07:00 +25°C° 0 mm 1 m/s 757 mmHg 52%
08:00 +28°C° 0 mm 1 m/s 757 mmHg 42%
09:00 +31°C° 0 mm 1 m/s 757 mmHg 31%
10:00 +32°C° 0 mm 0 m/s 758 mmHg 21%
11:00 +36°C° 0 mm 2 m/s 757 mmHg 21%
12:00 +37°C° 0 mm 3 m/s 757 mmHg 22%
13:00 +37°C° 0 mm 4 m/s 756 mmHg 22%
14:00 +37°C° 0 mm 4 m/s 756 mmHg 24%
15:00 +36°C° 0 mm 4 m/s 756 mmHg 27%
16:00 +35°C° 0 mm 4 m/s 756 mmHg 29%
17:00 +33°C° 0 mm 3 m/s 756 mmHg 37%
18:00 +29°C° 0 mm 2 m/s 756 mmHg 44%
19:00 +27°C° 0 mm 1 m/s 757 mmHg 52%
20:00 +26°C° 0 mm 1 m/s 757 mmHg 51%
21:00 +26°C° 0 mm 1 m/s 757 mmHg 49%
22:00 +25°C° 0 mm 1 m/s 757 mmHg 47%
23:00 +25°C° 0 mm 1 m/s 757 mmHg 45%

24 Octobre, Samedi

Heure Température Précipitation Vent Pression Humidité
00:00 +26°C° 0 mm 1 m/s 757 mmHg 43%
01:00 +26°C° 0 mm 2 m/s 757 mmHg 41%
02:00 +26°C° 0 mm 1 m/s 757 mmHg 37%
03:00 +25°C° 0 mm 1 m/s 757 mmHg 33%
04:00 +25°C° 0 mm 1 m/s 757 mmHg 28%
05:00 +25°C° 0 mm 1 m/s 757 mmHg 28%
06:00 +26°C° 0 mm 2 m/s 758 mmHg 28%
07:00 +26°C° 0 mm 2 m/s 758 mmHg 27%
08:00 +29°C° 0 mm 2 m/s 758 mmHg 24%
09:00 +32°C° 0 mm 2 m/s 759 mmHg 20%
10:00 +36°C° 0 mm 2 m/s 759 mmHg 16%
11:00 +36°C° 0 mm 2 m/s 759 mmHg 16%
12:00 +37°C° 0 mm 3 m/s 758 mmHg 17%
13:00 +37°C° 0 mm 4 m/s 758 mmHg 17%
14:00 +37°C° 0 mm 4 m/s 757 mmHg 19%
15:00 +36°C° 0 mm 5 m/s 757 mmHg 21%
16:00 +35°C° 0 mm 6 m/s 757 mmHg 23%
17:00 +33°C° 0 mm 5 m/s 757 mmHg 23%
18:00 +30°C° 0 mm 3 m/s 758 mmHg 23%
19:00 +27°C° 0 mm 2 m/s 758 mmHg 24%
20:00 +27°C° 0 mm 2 m/s 758 mmHg 23%
21:00 +26°C° 0 mm 1 m/s 758 mmHg 22%
22:00 +25°C° 0 mm 1 m/s 759 mmHg 22%
23:00 +25°C° 0 mm 1 m/s 759 mmHg 22%

25 Octobre, Dimanche

Heure Température Précipitation Vent Pression Humidité
00:00 +25°C° 0 mm 1 m/s 758 mmHg 22%
01:00 +24°C° 0 mm 1 m/s 758 mmHg 23%
02:00 +25°C° 0 mm 1 m/s 758 mmHg 23%
03:00 +25°C° 0 mm 1 m/s 758 mmHg 23%
04:00 +25°C° 0 mm 2 m/s 758 mmHg 24%
05:00 +26°C° 0 mm 3 m/s 759 mmHg 25%
06:00 +26°C° 0 mm 3 m/s 759 mmHg 26%
07:00 +27°C° 0 mm 4 m/s 759 mmHg 28%
08:00 +30°C° 0 mm 4 m/s 760 mmHg 24%
09:00 +33°C° 0 mm 3 m/s 760 mmHg 19%
10:00 +36°C° 0 mm 3 m/s 760 mmHg 15%
11:00 +36°C° 0 mm 4 m/s 760 mmHg 17%
12:00 +36°C° 0 mm 4 m/s 759 mmHg 19%
13:00 +36°C° 0 mm 5 m/s 759 mmHg 20%
14:00 +36°C° 0 mm 5 m/s 758 mmHg 22%
15:00 +35°C° 0 mm 6 m/s 758 mmHg 24%
16:00 +35°C° 0 mm 6 m/s 758 mmHg 26%
17:00 +33°C° 0 mm 5 m/s 758 mmHg 28%
18:00 +30°C° 0 mm 4 m/s 758 mmHg 30%
19:00 +28°C° 0 mm 3 m/s 758 mmHg 32%
20:00 +27°C° 0 mm 3 m/s 758 mmHg 33%
21:00 +26°C° 0 mm 2 m/s 759 mmHg 33%
22:00 +25°C° 0 mm 1 m/s 759 mmHg 33%
23:00 +24°C° 0 mm 1 m/s 759 mmHg 34%

26 Octobre, Lundi

Heure Température Précipitation Vent Pression Humidité
00:00 +24°C° 0 mm 1 m/s 758 mmHg 36%
01:00 +24°C° 0 mm 1 m/s 758 mmHg 38%
02:00 +24°C° 0 mm 1 m/s 758 mmHg 39%
03:00 +23°C° 0 mm 1 m/s 758 mmHg 40%
04:00 +23°C° 0 mm 1 m/s 758 mmHg 41%
05:00 +24°C° 0 mm 1 m/s 758 mmHg 40%
06:00 +24°C° 0 mm 1 m/s 759 mmHg 39%
07:00 +25°C° 0 mm 1 m/s 759 mmHg 37%
08:00 +28°C° 0 mm 1 m/s 759 mmHg 32%
09:00 +31°C° 0 mm 1 m/s 760 mmHg 26%
10:00 +34°C° 0 mm 1 m/s 760 mmHg 20%
11:00 +35°C° 0 mm 2 m/s 759 mmHg 20%
12:00 +36°C° 0 mm 3 m/s 759 mmHg 20%
13:00 +37°C° 0 mm 4 m/s 758 mmHg 20%
14:00 +36°C° 0 mm 4 m/s 758 mmHg 23%
15:00 +35°C° 0 mm 4 m/s 758 mmHg 26%
16:00 +35°C° 0 mm 4 m/s 757 mmHg 29%
17:00 +31°C° 0 mm 3 m/s 758 mmHg 39%
18:00 +29°C° 0 mm 3 m/s 758 mmHg 48%
19:00 +27°C° 0 mm 2 m/s 758 mmHg 58%
20:00 +26°C° 0 mm 2 m/s 758 mmHg 57%
21:00 +26°C° 0 mm 1 m/s 758 mmHg 56%
22:00 +25°C° 0 mm 1 m/s 758 mmHg 55%
23:00 +25°C° 0 mm 1 m/s 758 mmHg 50%

27 Octobre, Mardi

Heure Température Précipitation Vent Pression Humidité
00:00 +25°C° 0 mm 1 m/s 758 mmHg 46%
01:00 +25°C° 0 mm 1 m/s 758 mmHg 42%
02:00 +24°C° 0 mm 1 m/s 758 mmHg 42%
03:00 +24°C° 0 mm 1 m/s 758 mmHg 42%
04:00 +23°C° 0 mm 1 m/s 758 mmHg 43%
05:00 +24°C° 0 mm 2 m/s 758 mmHg 42%
06:00 +24°C° 0 mm 2 m/s 759 mmHg 41%
07:00 +25°C° 0 mm 2 m/s 759 mmHg 41%
08:00 +28°C° 0 mm 2 m/s 760 mmHg 35%
09:00 +30°C° 0 mm 2 m/s 760 mmHg 29%
10:00 +34°C° 0 mm 2 m/s 760 mmHg 23%
11:00 +35°C° 0 mm 3 m/s 760 mmHg 22%
12:00 +36°C° 0 mm 3 m/s 759 mmHg 21%
13:00 +36°C° 0 mm 4 m/s 759 mmHg 20%
14:00 +36°C° 0 mm 4 m/s 759 mmHg 24%
15:00 +35°C° 0 mm 4 m/s 758 mmHg 28%
16:00 +34°C° 0 mm 4 m/s 758 mmHg 32%
17:00 +32°C° 0 mm 4 m/s 758 mmHg 40%
18:00 +29°C° 0 mm 3 m/s 758 mmHg 48%
19:00 +27°C° 0 mm 2 m/s 758 mmHg 57%
20:00 +27°C° 0 mm 2 m/s 759 mmHg 55%
21:00 +26°C° 0 mm 2 m/s 759 mmHg 53%
22:00 +26°C° 0 mm 1 m/s 759 mmHg 52%
23:00 +25°C° 0 mm 1 m/s 759 mmHg 52%
Voir plus

Nous avons besoin de votre consentement

Meteoprog et ses fournisseurs de services peuvent stocker et accéder à des données personnelles telles que des cookies, des identifiants d'appareils ou d'autres technologies similaires sur votre appareil et traiter ces données pour personnaliser le contenu et les publicités, ainsi que pour fournir des fonctionnalités de médias sociaux et analyser le trafic.

  • Stocker et/ou accéder à des informations sur votre appareil

    Des cookies, des identifiants d'appareils ou d'autres informations peuvent être stockés ou accessibles sur votre appareil aux fins indiquées ci-dessus.

  • Annonces et contenus personnalisés, mesure des annonces et des contenus, connaissance de l'audience et développement de produits

    Les annonces et le contenu peuvent être personnalisés en fonction d'un profil. D'autres données peuvent être ajoutées pour mieux personnaliser les annonces et le contenu. Les performances des publicités et du contenu peuvent être mesurées. Il est possible d'obtenir des informations sur le public qui a vu les publicités et le contenu. Ces données peuvent être utilisées pour développer ou améliorer l'expérience de l'utilisateur, les systèmes et les logiciels.

En cliquant sur "J'accepte", vous autorisez l'utilisation de cookies, des identifiants d'appareils, des balises web ou d'autres technologies similaires. Vos paramètres peuvent être modifiés dans le navigateur de votre appareil.

Dans certains cas, des intérêts légitimes peuvent être invoqués plutôt qu'un consentement. Vous pouvez en savoir plus à ce sujet dans notre Politique de confidentialité et de cookies.